Location: ??????
(33.3472°N, 35.4764°E)
Time: 15:06:04
(UTC+00:00)

Cosmos 1842 Rocket - Pass Details

Date: 21 August 2019
Orbit: 605 x 635 km, 82.5° (Epoch: 16 September)

Event Time Altitude Azimuth Distance (km) Brightness Sun altitude
Exits shadow 01:45:08 17° 195° (SSW) 1,573 5.2 -16.3°
Maximum altitude 01:48:28 70° 276° (W) 664 3.5 -15.6°
Drops below altitude 10° 01:52:52 10° 1° (N) 1,988 6.5 -14.8°
Sets 01:55:06 0° 4° (N) 2,892 7.4 -14.4°
